date,time,SUV Intensity [MED/Hr],UV Index,Daily total [MED],Since Last [MED]
19/03/2023,00:04:13,0.000,0.0,0.0,0.0
19/03/2023,00:05:14,0.000,0.0,0.0,0.0
19/03/2023,00:06:14,0.001,0.0,0.0,0.0
19/03/2023,00:07:13,0.000,0.0,0.0,0.0
19/03/2023,00:08:13,0.000,0.0,0.0,0.0
19/03/2023,00:09:15,0.000,0.0,0.0,0.0
19/03/2023,00:10:13,0.001,0.0,0.0,0.0
19/03/2023,00:11:13,0.000,0.0,0.0,0.0
19/03/2023,00:12:13,0.000,0.0,0.0,0.0
19/03/2023,00:13:13,0.000,0.0,0.0,0.0
19/03/2023,00:14:13,-0.001,0.0,0.0,0.0
19/03/2023,00:15:13,0.000,0.0,0.0,0.0
19/03/2023,00:16:13,0.000,0.0,0.0,0.0
19/03/2023,00:17:13,0.000,0.0,0.0,0.0
19/03/2023,00:18:13,0.000,0.0,0.0,0.0
19/03/2023,00:19:14,0.000,0.0,0.0,0.0
19/03/2023,00:20:13,0.000,0.0,0.0,0.0
19/03/2023,00:21:13,0.000,0.0,0.0,0.0
19/03/2023,00:22:14,0.000,0.0,0.0,0.0
19/03/2023,00:23:14,0.000,0.0,0.0,0.0
19/03/2023,00:24:14,0.000,0.0,0.0,0.0
19/03/2023,00:25:13,0.000,0.0,0.0,0.0
19/03/2023,00:26:15,0.000,0.0,0.0,0.0
19/03/2023,00:27:14,0.000,0.0,0.0,0.0
19/03/2023,00:28:13,-0.001,0.0,0.0,0.0
19/03/2023,00:29:14,0.000,0.0,0.0,0.0
19/03/2023,00:30:13,0.000,0.0,0.0,0.0
19/03/2023,00:31:14,0.000,0.0,0.0,0.0
19/03/2023,00:32:13,0.000,0.0,0.0,0.0
19/03/2023,00:33:14,0.000,0.0,0.0,0.0
19/03/2023,00:34:13,-0.001,0.0,0.0,0.0
19/03/2023,00:35:13,0.000,0.0,0.0,0.0
19/03/2023,00:36:13,0.000,0.0,0.0,0.0
19/03/2023,00:37:13,0.000,0.0,0.0,0.0
19/03/2023,00:38:13,0.000,0.0,0.0,0.0
19/03/2023,00:39:13,-0.001,0.0,0.0,0.0
19/03/2023,00:40:13,0.000,0.0,0.0,0.0
19/03/2023,00:41:13,0.000,0.0,0.0,0.0
19/03/2023,00:42:13,0.000,0.0,0.0,0.0
19/03/2023,00:43:14,0.000,0.0,0.0,0.0
19/03/2023,00:44:13,0.000,0.0,0.0,0.0
19/03/2023,00:45:14,0.000,0.0,0.0,0.0
19/03/2023,00:46:13,0.000,0.0,0.0,0.0
19/03/2023,00:47:13,0.000,0.0,0.0,0.0
19/03/2023,00:48:13,0.000,0.0,0.0,0.0
19/03/2023,00:49:13,0.000,0.0,0.0,0.0
19/03/2023,00:50:13,0.000,0.0,0.0,0.0
19/03/2023,00:51:13,0.000,0.0,0.0,0.0
19/03/2023,00:52:13,-0.001,0.0,0.0,0.0
19/03/2023,00:53:13,0.000,0.0,0.0,0.0
19/03/2023,00:54:13,0.000,0.0,0.0,0.0
19/03/2023,00:55:13,-0.001,0.0,0.0,0.0
19/03/2023,00:56:14,0.000,0.0,0.0,0.0
19/03/2023,00:57:15,0.000,0.0,0.0,0.0
19/03/2023,00:58:13,0.000,0.0,0.0,0.0
19/03/2023,00:59:13,0.000,0.0,0.0,0.0
19/03/2023,01:00:13,0.000,0.0,0.0,0.0
19/03/2023,01:01:13,0.000,0.0,0.0,0.0
19/03/2023,01:02:14,0.000,0.0,0.0,0.0
19/03/2023,01:03:13,0.000,0.0,0.0,0.0
19/03/2023,01:04:13,0.000,0.0,0.0,0.0
19/03/2023,01:05:13,0.000,0.0,0.0,0.0
19/03/2023,01:06:13,0.000,0.0,0.0,0.0
19/03/2023,01:07:13,0.000,0.0,0.0,0.0
19/03/2023,01:08:13,0.000,0.0,0.0,0.0
19/03/2023,01:09:13,0.000,0.0,0.0,0.0
19/03/2023,01:10:13,0.000,0.0,0.0,0.0
19/03/2023,01:11:13,0.000,0.0,0.0,0.0
19/03/2023,01:12:13,0.000,0.0,0.0,0.0
19/03/2023,01:13:13,0.000,0.0,0.0,0.0
19/03/2023,01:14:13,0.000,0.0,0.0,0.0
19/03/2023,01:15:13,0.000,0.0,0.0,0.0
19/03/2023,01:16:13,0.000,0.0,0.0,0.0
19/03/2023,01:17:13,0.000,0.0,0.0,0.0
19/03/2023,01:18:13,0.000,0.0,0.0,0.0
19/03/2023,01:19:13,0.000,0.0,0.0,0.0
19/03/2023,01:20:13,-0.000,0.0,0.0,0.0
19/03/2023,01:21:13,0.000,0.0,0.0,0.0
19/03/2023,01:22:13,0.000,0.0,0.0,0.0
19/03/2023,01:23:13,-0.001,0.0,0.0,0.0
19/03/2023,01:24:13,0.000,0.0,0.0,0.0
19/03/2023,01:25:13,0.000,0.0,0.0,0.0
19/03/2023,01:26:13,-0.001,0.0,0.0,0.0
19/03/2023,01:27:14,0.000,0.0,0.0,0.0
19/03/2023,01:28:13,0.000,0.0,0.0,0.0
19/03/2023,01:29:13,0.000,0.0,0.0,0.0
19/03/2023,01:30:14,0.000,0.0,0.0,0.0
19/03/2023,01:31:14,0.000,0.0,0.0,0.0
19/03/2023,01:32:14,0.000,0.0,0.0,0.0
19/03/2023,01:33:13,0.000,0.0,0.0,0.0
19/03/2023,01:34:14,0.000,0.0,0.0,0.0
19/03/2023,01:35:14,0.000,0.0,0.0,0.0
19/03/2023,01:36:14,0.000,0.0,0.0,0.0
19/03/2023,01:37:13,0.000,0.0,0.0,0.0
19/03/2023,01:38:13,0.000,0.0,0.0,0.0
19/03/2023,01:39:13,0.000,0.0,0.0,0.0
19/03/2023,01:40:13,0.000,0.0,0.0,0.0
19/03/2023,01:41:13,0.000,0.0,0.0,0.0
19/03/2023,01:42:13,0.000,0.0,0.0,0.0
19/03/2023,01:43:14,0.000,0.0,0.0,0.0
19/03/2023,01:44:14,0.000,0.0,0.0,0.0
19/03/2023,01:45:14,0.000,0.0,0.0,0.0
19/03/2023,01:46:14,0.000,0.0,0.0,0.0
19/03/2023,01:47:13,0.000,0.0,0.0,0.0
19/03/2023,01:48:14,0.000,0.0,0.0,0.0
19/03/2023,01:49:13,0.000,0.0,0.0,0.0
19/03/2023,01:50:14,0.000,0.0,0.0,0.0
19/03/2023,01:51:14,0.000,0.0,0.0,0.0
19/03/2023,01:52:14,0.000,0.0,0.0,0.0
19/03/2023,01:53:13,0.000,0.0,0.0,0.0
19/03/2023,01:54:13,0.000,0.0,0.0,0.0
19/03/2023,01:55:13,-0.001,0.0,0.0,0.0
19/03/2023,01:56:13,-0.000,0.0,0.0,0.0
19/03/2023,01:57:14,-0.001,0.0,0.0,0.0
19/03/2023,01:58:13,0.000,0.0,0.0,0.0
19/03/2023,01:59:14,0.000,0.0,0.0,0.0
19/03/2023,02:00:14,0.000,0.0,0.0,0.0
19/03/2023,02:01:13,0.000,0.0,0.0,0.0
19/03/2023,02:02:13,0.000,0.0,0.0,0.0
19/03/2023,02:03:13,-0.001,0.0,0.0,0.0
19/03/2023,02:04:13,0.000,0.0,0.0,0.0
19/03/2023,02:05:13,0.000,0.0,0.0,0.0
19/03/2023,02:06:13,0.000,0.0,0.0,0.0
19/03/2023,02:07:14,0.000,0.0,0.0,0.0
19/03/2023,02:08:13,0.000,0.0,0.0,0.0
19/03/2023,02:09:13,0.000,0.0,0.0,0.0
19/03/2023,02:10:14,0.000,0.0,0.0,0.0
19/03/2023,02:11:13,0.000,0.0,0.0,0.0
19/03/2023,02:12:14,0.000,0.0,0.0,0.0
19/03/2023,02:13:14,0.000,0.0,0.0,0.0
19/03/2023,02:14:13,0.000,0.0,0.0,0.0
19/03/2023,02:15:13,0.000,0.0,0.0,0.0
19/03/2023,02:16:14,0.000,0.0,0.0,0.0
19/03/2023,02:17:14,0.000,0.0,0.0,0.0
19/03/2023,02:18:14,0.000,0.0,0.0,0.0
19/03/2023,02:19:14,-0.001,0.0,0.0,0.0
19/03/2023,02:20:14,0.000,0.0,0.0,0.0
19/03/2023,02:21:13,0.000,0.0,0.0,0.0
19/03/2023,02:22:13,0.000,0.0,0.0,0.0
19/03/2023,02:23:14,0.000,0.0,0.0,0.0
19/03/2023,02:24:14,0.000,0.0,0.0,0.0
19/03/2023,02:25:14,0.000,0.0,0.0,0.0
19/03/2023,02:26:14,0.000,0.0,0.0,0.0
19/03/2023,02:27:14,0.000,0.0,0.0,0.0
19/03/2023,02:28:14,0.000,0.0,0.0,0.0
19/03/2023,02:29:14,0.000,0.0,0.0,0.0
19/03/2023,02:30:14,0.000,0.0,0.0,0.0
19/03/2023,02:31:14,0.000,0.0,0.0,0.0
19/03/2023,02:32:13,0.000,0.0,0.0,0.0
19/03/2023,02:33:14,-0.000,0.0,0.0,0.0
19/03/2023,02:34:14,0.000,0.0,0.0,0.0
19/03/2023,02:35:14,0.000,0.0,0.0,0.0
19/03/2023,02:36:14,0.000,0.0,0.0,0.0
19/03/2023,02:37:14,0.000,0.0,0.0,0.0
19/03/2023,02:38:14,0.000,0.0,0.0,0.0
19/03/2023,02:39:14,0.000,0.0,0.0,0.0
19/03/2023,02:40:14,0.000,0.0,0.0,0.0
19/03/2023,02:41:14,0.000,0.0,0.0,0.0
19/03/2023,02:42:14,0.000,0.0,0.0,0.0
19/03/2023,02:43:13,0.000,0.0,0.0,0.0
19/03/2023,02:44:13,0.000,0.0,0.0,0.0
19/03/2023,02:45:13,0.000,0.0,0.0,0.0
19/03/2023,02:46:14,0.000,0.0,0.0,0.0
19/03/2023,02:47:14,0.000,0.0,0.0,0.0
19/03/2023,02:48:14,0.000,0.0,0.0,0.0
19/03/2023,02:49:14,0.000,0.0,0.0,0.0
19/03/2023,02:50:14,0.000,0.0,0.0,0.0
19/03/2023,02:51:14,0.000,0.0,0.0,0.0
19/03/2023,02:52:13,0.000,0.0,0.0,0.0
19/03/2023,02:53:13,0.000,0.0,0.0,0.0
19/03/2023,02:54:14,0.000,0.0,0.0,0.0
19/03/2023,02:55:14,0.000,0.0,0.0,0.0
19/03/2023,02:56:14,0.000,0.0,0.0,0.0
19/03/2023,02:57:14,0.000,0.0,0.0,0.0
19/03/2023,02:58:13,0.000,0.0,0.0,0.0
19/03/2023,02:59:14,0.000,0.0,0.0,0.0
19/03/2023,03:00:14,0.000,0.0,0.0,0.0
19/03/2023,03:01:14,0.000,0.0,0.0,0.0
19/03/2023,03:02:14,0.000,0.0,0.0,0.0
19/03/2023,03:03:14,0.000,0.0,0.0,0.0
19/03/2023,03:04:14,0.000,0.0,0.0,0.0
19/03/2023,03:05:13,0.000,0.0,0.0,0.0
19/03/2023,03:06:14,0.000,0.0,0.0,0.0
19/03/2023,03:07:14,0.000,0.0,0.0,0.0
19/03/2023,03:08:14,0.000,0.0,0.0,0.0
19/03/2023,03:09:14,0.000,0.0,0.0,0.0
19/03/2023,03:10:14,0.000,0.0,0.0,0.0
19/03/2023,03:11:14,0.000,0.0,0.0,0.0
19/03/2023,03:12:13,0.000,0.0,0.0,0.0
19/03/2023,03:13:13,0.000,0.0,0.0,0.0
19/03/2023,03:14:13,0.000,0.0,0.0,0.0
19/03/2023,03:15:13,0.000,0.0,0.0,0.0
19/03/2023,03:16:13,0.000,0.0,0.0,0.0
19/03/2023,03:17:14,0.000,0.0,0.0,0.0
19/03/2023,03:18:14,0.000,0.0,0.0,0.0
19/03/2023,03:19:14,0.000,0.0,0.0,0.0
19/03/2023,03:20:14,0.000,0.0,0.0,0.0
19/03/2023,03:21:14,0.000,0.0,0.0,0.0
19/03/2023,03:22:14,0.000,0.0,0.0,0.0
19/03/2023,03:23:14,0.000,0.0,0.0,0.0
19/03/2023,03:24:14,0.000,0.0,0.0,0.0
19/03/2023,03:25:14,0.000,0.0,0.0,0.0
19/03/2023,03:26:14,0.000,0.0,0.0,0.0
19/03/2023,03:27:14,0.000,0.0,0.0,0.0
19/03/2023,03:28:14,0.000,0.0,0.0,0.0
19/03/2023,03:29:14,-0.000,0.0,0.0,0.0
19/03/2023,03:30:14,0.000,0.0,0.0,0.0
19/03/2023,03:31:14,0.000,0.0,0.0,0.0
19/03/2023,03:32:14,0.000,0.0,0.0,0.0
19/03/2023,03:33:14,0.000,0.0,0.0,0.0
19/03/2023,03:34:14,0.000,0.0,0.0,0.0
19/03/2023,03:35:14,0.000,0.0,0.0,0.0
19/03/2023,03:36:14,0.001,0.0,0.0,0.0
19/03/2023,03:37:13,0.000,0.0,0.0,0.0
19/03/2023,03:38:13,0.000,0.0,0.0,0.0
19/03/2023,03:39:14,0.000,0.0,0.0,0.0
19/03/2023,03:40:13,0.000,0.0,0.0,0.0
19/03/2023,03:41:13,0.001,0.0,0.0,0.0
19/03/2023,03:42:13,0.000,0.0,0.0,0.0
19/03/2023,03:43:13,0.000,0.0,0.0,0.0
19/03/2023,03:44:14,0.000,0.0,0.0,0.0
19/03/2023,03:45:14,0.000,0.0,0.0,0.0
19/03/2023,03:46:16,0.001,0.0,0.0,0.0
19/03/2023,03:47:14,0.001,0.0,0.0,0.0
19/03/2023,03:48:14,0.000,0.0,0.0,0.0
19/03/2023,03:49:14,0.001,0.0,0.0,0.0
19/03/2023,03:50:13,0.001,0.0,0.0,0.0
19/03/2023,03:51:14,0.001,0.0,0.0,0.0
19/03/2023,03:52:13,0.001,0.0,0.0,0.0
19/03/2023,03:53:14,0.001,0.0,0.0,0.0
19/03/2023,03:54:14,0.000,0.0,0.0,0.0
19/03/2023,03:55:14,0.001,0.0,0.0,0.0
19/03/2023,03:56:14,0.001,0.0,0.0,0.0
19/03/2023,03:57:14,0.001,0.0,0.0,0.0
19/03/2023,03:58:14,0.000,0.0,0.0,0.0
19/03/2023,03:59:14,0.001,0.0,0.0,0.0
19/03/2023,04:00:14,0.001,0.0,0.0,0.0
19/03/2023,04:01:14,0.001,0.0,0.0,0.0
19/03/2023,04:02:14,0.001,0.0,0.0,0.0
19/03/2023,04:03:14,0.001,0.0,0.0,0.0
19/03/2023,04:04:13,0.000,0.0,0.0,0.0
19/03/2023,04:05:13,0.000,0.0,0.0,0.0
19/03/2023,04:06:14,0.001,0.0,0.0,0.0
19/03/2023,04:07:13,0.001,0.0,0.0,0.0
19/03/2023,04:08:13,0.001,0.0,0.0,0.0
19/03/2023,04:09:13,0.001,0.0,0.0,0.0
19/03/2023,04:10:13,0.001,0.0,0.0,0.0
19/03/2023,04:11:13,0.000,0.0,0.0,0.0
19/03/2023,04:12:14,0.001,0.0,0.0,0.0
19/03/2023,04:13:14,0.000,0.0,0.0,0.0
19/03/2023,04:14:14,0.001,0.0,0.0,0.0
19/03/2023,04:15:14,0.000,0.0,0.0,0.0
19/03/2023,04:16:14,0.001,0.0,0.0,0.0
19/03/2023,04:17:14,0.001,0.0,0.0,0.0
19/03/2023,04:18:14,0.001,0.0,0.0,0.0
19/03/2023,04:19:14,0.001,0.0,0.0,0.0
19/03/2023,04:20:14,0.001,0.0,0.0,0.0
19/03/2023,04:21:14,0.001,0.0,0.0,0.0
19/03/2023,04:22:14,0.001,0.0,0.0,0.0
19/03/2023,04:23:14,0.001,0.0,0.0,0.0
19/03/2023,04:24:14,0.001,0.0,0.0,0.0
19/03/2023,04:25:14,0.001,0.0,0.0,0.0
19/03/2023,04:26:14,0.001,0.0,0.0,0.0
19/03/2023,04:27:14,0.001,0.0,0.0,0.0
19/03/2023,04:28:14,0.001,0.0,0.0,0.0
19/03/2023,04:29:14,0.001,0.0,0.0,0.0
19/03/2023,04:30:13,0.001,0.0,0.0,0.0
19/03/2023,04:31:14,0.001,0.0,0.0,0.0
19/03/2023,04:32:14,0.001,0.0,0.0,0.0
19/03/2023,04:33:14,0.001,0.0,0.0,0.0
19/03/2023,04:34:13,0.000,0.0,0.0,0.0
19/03/2023,04:35:14,0.001,0.0,0.0,0.0
19/03/2023,04:36:14,0.001,0.0,0.0,0.0
19/03/2023,04:37:14,0.002,0.0,0.0,0.0
19/03/2023,04:38:14,0.001,0.0,0.0,0.0
19/03/2023,04:39:14,0.001,0.0,0.0,0.0
19/03/2023,04:40:14,0.000,0.0,0.0,0.0
19/03/2023,04:41:13,0.001,0.0,0.0,0.0
19/03/2023,04:42:17,0.001,0.0,0.0,0.0
19/03/2023,04:43:15,0.000,0.0,0.0,0.0
19/03/2023,04:44:14,0.001,0.0,0.0,0.0
19/03/2023,04:45:14,0.001,0.0,0.0,0.0
19/03/2023,04:46:14,0.001,0.0,0.0,0.0
19/03/2023,04:47:14,0.001,0.0,0.0,0.0
19/03/2023,04:48:14,0.000,0.0,0.0,0.0
19/03/2023,04:49:13,0.000,0.0,0.0,0.0
19/03/2023,04:50:14,0.001,0.0,0.0,0.0
19/03/2023,04:51:13,0.000,0.0,0.0,0.0
19/03/2023,04:52:14,0.001,0.0,0.0,0.0
19/03/2023,04:53:13,0.000,0.0,0.0,0.0
19/03/2023,04:54:14,0.001,0.0,0.0,0.0
19/03/2023,04:55:13,0.001,0.0,0.0,0.0
19/03/2023,04:56:13,0.002,0.0,0.0,0.0
19/03/2023,04:57:13,0.000,0.0,0.0,0.0
19/03/2023,04:58:13,0.002,0.0,0.0,0.0
19/03/2023,04:59:13,0.001,0.0,0.0,0.0
19/03/2023,05:00:14,0.001,0.0,0.0,0.0
19/03/2023,05:01:14,0.001,0.0,0.0,0.0
19/03/2023,05:02:14,0.001,0.0,0.0,0.0
19/03/2023,05:03:13,0.001,0.0,0.0,0.0
19/03/2023,05:04:14,0.001,0.0,0.0,0.0
19/03/2023,05:05:14,0.001,0.0,0.0,0.0
19/03/2023,05:06:14,0.001,0.0,0.0,0.0
19/03/2023,05:07:14,0.002,0.0,0.0,0.0
19/03/2023,05:08:14,0.001,0.0,0.0,0.0
19/03/2023,05:09:14,0.001,0.0,0.0,0.0
19/03/2023,05:10:13,0.000,0.0,0.0,0.0
19/03/2023,05:11:14,0.001,0.0,0.0,0.0
19/03/2023,05:12:13,0.001,0.0,0.0,0.0
19/03/2023,05:13:13,-0.000,0.0,0.0,0.0
19/03/2023,05:14:14,0.001,0.0,0.0,0.0
19/03/2023,05:15:14,0.001,0.0,0.0,0.0
19/03/2023,05:16:14,0.000,0.0,0.0,0.0
19/03/2023,05:17:14,0.000,0.0,0.0,0.0
19/03/2023,05:18:14,0.001,0.0,0.0,0.0
19/03/2023,05:19:14,0.001,0.0,0.0,0.0
19/03/2023,05:20:14,0.001,0.0,0.0,0.0
19/03/2023,05:21:14,0.001,0.0,0.0,0.0
19/03/2023,05:22:14,0.000,0.0,0.0,0.0
19/03/2023,05:23:14,0.001,0.0,0.0,0.0
19/03/2023,05:24:14,0.001,0.0,0.0,0.0
19/03/2023,05:25:14,0.002,0.0,0.0,0.0
19/03/2023,05:26:14,0.001,0.0,0.0,0.0
19/03/2023,05:27:14,0.001,0.0,0.0,0.0
19/03/2023,05:28:14,0.001,0.0,0.0,0.0
19/03/2023,05:29:14,0.000,0.0,0.0,0.0
19/03/2023,05:30:14,0.002,0.0,0.0,0.0
19/03/2023,05:31:14,0.001,0.0,0.0,0.0
19/03/2023,05:32:14,0.001,0.0,0.0,0.0
19/03/2023,05:33:14,0.001,0.0,0.0,0.0
19/03/2023,05:34:13,0.000,0.0,0.0,0.0
19/03/2023,05:35:14,0.001,0.0,0.0,0.0
19/03/2023,05:36:14,0.001,0.0,0.0,0.0
19/03/2023,05:37:14,0.001,0.0,0.0,0.0
19/03/2023,05:38:14,0.000,0.0,0.0,0.0
19/03/2023,05:39:13,0.001,0.0,0.0,0.0
19/03/2023,05:40:14,0.001,0.0,0.0,0.0
19/03/2023,05:41:14,0.001,0.0,0.0,0.0
19/03/2023,05:42:14,0.001,0.0,0.0,0.0
19/03/2023,05:43:14,0.001,0.0,0.0,0.0
19/03/2023,05:44:13,0.001,0.0,0.0,0.0
19/03/2023,05:45:14,0.000,0.0,0.0,0.0
19/03/2023,05:46:14,0.000,0.0,0.0,0.0
19/03/2023,05:47:14,0.001,0.0,0.0,0.0
19/03/2023,05:48:14,0.001,0.0,0.0,0.0
19/03/2023,05:49:14,0.001,0.0,0.0,0.0
19/03/2023,05:50:14,0.001,0.0,0.0,0.0
19/03/2023,05:51:14,0.002,0.0,0.0,0.0
19/03/2023,05:52:14,0.001,0.0,0.0,0.0
19/03/2023,05:53:14,0.001,0.0,0.0,0.0
19/03/2023,05:54:14,0.001,0.0,0.0,0.0
19/03/2023,05:55:14,0.001,0.0,0.0,0.0
19/03/2023,05:56:14,0.000,0.0,0.0,0.0
19/03/2023,05:57:14,0.001,0.0,0.0,0.0
19/03/2023,05:58:14,0.001,0.0,0.0,0.0
19/03/2023,05:59:14,0.000,0.0,0.0,0.0
19/03/2023,06:00:14,0.002,0.0,0.0,0.0
19/03/2023,06:01:14,0.001,0.0,0.0,0.0
19/03/2023,06:02:14,0.002,0.0,0.0,0.0
19/03/2023,06:03:14,0.002,0.0,0.0,0.0
19/03/2023,06:04:13,0.001,0.0,0.0,0.0
19/03/2023,06:05:14,0.001,0.0,0.0,0.0
19/03/2023,06:06:14,0.003,0.0,0.0,0.0
19/03/2023,06:07:14,0.002,0.0,0.0,0.0
19/03/2023,06:08:14,0.003,0.0,0.0,0.0
19/03/2023,06:09:14,0.003,0.0,0.0,0.0
19/03/2023,06:10:14,0.003,0.0,0.0,0.0
19/03/2023,06:11:14,0.002,0.0,0.0,0.0
19/03/2023,06:12:18,0.003,0.0,0.0,0.0
19/03/2023,06:13:14,0.003,0.0,0.0,0.0
19/03/2023,06:14:14,0.003,0.0,0.0,0.0
19/03/2023,06:15:14,0.003,0.0,0.0,0.0
19/03/2023,06:16:14,0.003,0.0,0.0,0.0
19/03/2023,06:17:14,0.004,0.0,0.0,0.0
19/03/2023,06:18:14,0.004,0.0,0.0,0.0
19/03/2023,06:19:14,0.005,0.0,0.0,0.0
19/03/2023,06:20:14,0.003,0.0,0.0,0.0
19/03/2023,06:21:14,0.004,0.0,0.0,0.0
19/03/2023,06:22:14,0.005,0.0,0.0,0.0
19/03/2023,06:23:14,0.005,0.0,0.0,0.0
19/03/2023,06:24:14,0.005,0.0,0.0,0.0
19/03/2023,06:25:14,0.005,0.0,0.0,0.0
19/03/2023,06:26:14,0.005,0.0,0.0,0.0
19/03/2023,06:27:14,0.006,0.0,0.0,0.0
19/03/2023,06:28:14,0.007,0.0,0.0,0.0
19/03/2023,06:29:14,0.007,0.0,0.0,0.0
19/03/2023,06:30:14,0.007,0.0,0.0,0.0
19/03/2023,06:31:14,0.008,0.0,0.0,0.0
19/03/2023,06:32:13,0.008,0.0,0.001,0.001
19/03/2023,06:33:14,0.007,0.0,0.001,0.0
19/03/2023,06:34:14,0.008,0.0,0.001,0.0
19/03/2023,06:35:13,0.009,0.0,0.001,0.0
19/03/2023,06:36:14,0.010,0.0,0.001,0.0
19/03/2023,06:37:14,0.010,0.0,0.001,0.0
19/03/2023,06:38:14,0.010,0.0,0.002,0.001
19/03/2023,06:39:14,0.011,0.0,0.002,0.0
19/03/2023,06:40:14,0.011,0.0,0.002,0.0
19/03/2023,06:41:14,0.011,0.0,0.002,0.0
19/03/2023,06:42:14,0.012,0.0,0.002,0.0
19/03/2023,06:43:14,0.012,0.0,0.002,0.0
19/03/2023,06:44:14,0.013,0.0,0.003,0.001
19/03/2023,06:45:14,0.013,0.0,0.003,0.0
19/03/2023,06:46:14,0.015,0.0,0.003,0.0
19/03/2023,06:47:14,0.015,0.0,0.003,0.0
19/03/2023,06:48:14,0.015,0.0,0.004,0.001
19/03/2023,06:49:14,0.016,0.0,0.004,0.0
19/03/2023,06:50:14,0.015,0.0,0.004,0.0
19/03/2023,06:51:13,0.017,0.0,0.004,0.0
19/03/2023,06:52:14,0.018,0.0,0.005,0.001
19/03/2023,06:53:14,0.018,0.0,0.005,0.0
19/03/2023,06:54:14,0.019,0.0,0.005,0.0
19/03/2023,06:55:14,0.020,0.0,0.006,0.001
19/03/2023,06:56:14,0.021,0.0,0.006,0.0
19/03/2023,06:57:14,0.020,0.0,0.006,0.0
19/03/2023,06:58:14,0.022,0.0,0.007,0.001
19/03/2023,06:59:14,0.022,0.0,0.007,0.0
19/03/2023,07:00:14,0.023,0.0,0.007,0.0
19/03/2023,07:01:14,0.024,0.0,0.008,0.001
19/03/2023,07:02:14,0.025,0.0,0.008,0.0
19/03/2023,07:03:14,0.025,0.0,0.009,0.001
19/03/2023,07:04:14,0.026,0.0,0.009,0.0
19/03/2023,07:05:14,0.027,0.0,0.009,0.0
19/03/2023,07:06:14,0.028,0.0,0.01,0.001
19/03/2023,07:07:13,0.029,0.0,0.01,0.0
19/03/2023,07:08:14,0.030,0.0,0.011,0.001
19/03/2023,07:09:12,0.031,0.0,0.011,0.0
19/03/2023,07:10:14,0.032,0.0,0.012,0.001
19/03/2023,07:11:14,0.032,0.0,0.012,0.0
19/03/2023,07:12:14,0.033,0.0,0.013,0.001
19/03/2023,07:13:14,0.035,0.0,0.014,0.001
19/03/2023,07:14:14,0.035,0.0,0.014,0.0
19/03/2023,07:15:15,0.035,0.0,0.015,0.001
19/03/2023,07:16:14,0.036,0.0,0.015,0.0
19/03/2023,07:17:14,0.036,0.0,0.016,0.001
19/03/2023,07:18:14,0.035,0.0,0.017,0.001
19/03/2023,07:19:14,0.037,0.0,0.017,0.0
19/03/2023,07:20:14,0.036,0.0,0.018,0.001
19/03/2023,07:21:14,0.036,0.0,0.018,0.0
19/03/2023,07:22:14,0.036,0.0,0.019,0.001
19/03/2023,07:23:14,0.037,0.0,0.02,0.001
19/03/2023,07:24:14,0.037,0.0,0.02,0.0
19/03/2023,07:25:14,0.038,0.0,0.021,0.001
19/03/2023,07:26:14,0.039,0.0,0.021,0.0
19/03/2023,07:27:14,0.039,0.0,0.022,0.001
19/03/2023,07:28:14,0.038,0.0,0.023,0.001
19/03/2023,07:29:14,0.037,0.0,0.023,0.0
19/03/2023,07:30:14,0.035,0.0,0.024,0.001
19/03/2023,07:31:14,0.035,0.0,0.025,0.001
19/03/2023,07:32:14,0.033,0.0,0.025,0.0
19/03/2023,07:33:14,0.032,0.0,0.026,0.001
19/03/2023,07:34:14,0.031,0.0,0.026,0.0
19/03/2023,07:35:14,0.032,0.0,0.027,0.001
19/03/2023,07:36:14,0.035,0.0,0.027,0.0
19/03/2023,07:37:14,0.037,0.0,0.028,0.001
19/03/2023,07:38:14,0.038,0.0,0.028,0.0
19/03/2023,07:39:14,0.039,0.0,0.029,0.001
19/03/2023,07:40:14,0.041,0.0,0.03,0.001
19/03/2023,07:41:14,0.045,0.0,0.031,0.001
19/03/2023,07:42:14,0.047,0.0,0.031,0.0
19/03/2023,07:43:14,0.050,0.0,0.032,0.001
19/03/2023,07:44:14,0.054,0.0,0.033,0.001
19/03/2023,07:45:14,0.058,0.0,0.034,0.001
19/03/2023,07:46:14,0.061,0.0,0.035,0.001
19/03/2023,07:47:14,0.063,0.0,0.036,0.001
19/03/2023,07:48:14,0.067,0.0,0.037,0.001
19/03/2023,07:49:14,0.068,0.0,0.038,0.001
19/03/2023,07:50:14,0.068,0.0,0.039,0.001
19/03/2023,07:51:14,0.069,0.0,0.04,0.001
19/03/2023,07:52:14,0.067,0.0,0.042,0.002
19/03/2023,07:53:15,0.069,0.0,0.043,0.001
19/03/2023,07:54:14,0.069,0.0,0.044,0.001
19/03/2023,07:55:14,0.072,0.0,0.045,0.001
19/03/2023,07:56:14,0.076,0.0,0.046,0.001
19/03/2023,07:57:14,0.079,0.0,0.048,0.002
19/03/2023,07:58:14,0.080,0.0,0.049,0.001
19/03/2023,07:59:14,0.079,0.0,0.05,0.001
19/03/2023,08:00:14,0.076,0.0,0.051,0.001
19/03/2023,08:01:14,0.074,0.0,0.053,0.002
19/03/2023,08:02:14,0.072,0.0,0.054,0.001
19/03/2023,08:03:14,0.069,0.0,0.055,0.001
19/03/2023,08:04:14,0.065,0.0,0.056,0.001
19/03/2023,08:05:14,0.067,0.0,0.057,0.001
19/03/2023,08:06:14,0.072,0.0,0.058,0.001
19/03/2023,08:07:14,0.078,0.0,0.06,0.002
19/03/2023,08:08:14,0.080,0.0,0.061,0.001
19/03/2023,08:09:14,0.085,0.0,0.062,0.001
19/03/2023,08:10:14,0.086,0.0,0.064,0.002
19/03/2023,08:11:14,0.087,0.0,0.065,0.001
19/03/2023,08:12:14,0.089,0.0,0.067,0.002
19/03/2023,08:13:14,0.092,0.0,0.068,0.001
19/03/2023,08:14:14,0.093,0.0,0.07,0.002
19/03/2023,08:15:14,0.094,0.0,0.071,0.001
19/03/2023,08:16:15,0.096,0.0,0.073,0.002
19/03/2023,08:17:15,0.102,0.0,0.075,0.002
19/03/2023,08:18:14,0.105,0.0,0.076,0.001
19/03/2023,08:19:14,0.105,0.0,0.078,0.002
19/03/2023,08:20:15,0.102,0.0,0.08,0.002
19/03/2023,08:21:14,0.102,0.0,0.082,0.002
19/03/2023,08:22:14,0.101,0.0,0.083,0.001
19/03/2023,08:23:15,0.103,0.0,0.085,0.002
19/03/2023,08:24:15,0.106,0.0,0.087,0.002
19/03/2023,08:25:14,0.106,0.0,0.088,0.001
19/03/2023,08:26:14,0.106,0.0,0.09,0.002
19/03/2023,08:27:14,0.108,0.0,0.092,0.002
19/03/2023,08:28:14,0.114,0.0,0.094,0.002
19/03/2023,08:29:14,0.122,0.0,0.096,0.002
19/03/2023,08:30:14,0.129,0.0,0.098,0.002
19/03/2023,08:31:15,0.134,0.0,0.1,0.002
19/03/2023,08:32:15,0.137,0.0,0.102,0.002
19/03/2023,08:33:14,0.137,0.0,0.105,0.003
19/03/2023,08:34:15,0.136,0.0,0.107,0.002
19/03/2023,08:35:14,0.138,0.0,0.109,0.002
19/03/2023,08:36:15,0.141,0.0,0.112,0.003
19/03/2023,08:37:15,0.138,0.0,0.114,0.002
19/03/2023,08:38:14,0.132,0.0,0.116,0.002
19/03/2023,08:39:15,0.130,0.0,0.118,0.002
19/03/2023,08:40:15,0.127,0.0,0.12,0.002
19/03/2023,08:41:14,0.130,0.0,0.123,0.003
19/03/2023,08:42:14,0.135,0.0,0.125,0.002
19/03/2023,08:43:15,0.139,0.0,0.127,0.002
19/03/2023,08:44:15,0.138,0.0,0.129,0.002
19/03/2023,08:45:14,0.132,0.0,0.132,0.003
19/03/2023,08:46:14,0.126,0.0,0.134,0.002
19/03/2023,08:47:14,0.119,0.0,0.136,0.002
19/03/2023,08:48:14,0.113,0.0,0.138,0.002
19/03/2023,08:49:14,0.108,0.0,0.14,0.002
19/03/2023,08:50:14,0.107,0.0,0.141,0.001
19/03/2023,08:51:14,0.112,0.0,0.143,0.002
19/03/2023,08:52:14,0.120,0.0,0.145,0.002
19/03/2023,08:53:15,0.130,0.0,0.147,0.002
19/03/2023,08:54:14,0.136,0.0,0.149,0.002
19/03/2023,08:55:14,0.140,0.0,0.152,0.003
19/03/2023,08:56:15,0.144,0.0,0.154,0.002
19/03/2023,08:57:15,0.149,0.0,0.157,0.003
19/03/2023,08:58:14,0.156,0.0,0.159,0.002
19/03/2023,08:59:15,0.162,0.0,0.162,0.003
19/03/2023,09:00:14,0.164,0.0,0.165,0.003
19/03/2023,09:01:14,0.162,0.0,0.167,0.002
19/03/2023,09:02:14,0.167,0.0,0.17,0.003
19/03/2023,09:03:14,0.176,0.0,0.173,0.003
19/03/2023,09:04:14,0.179,0.0,0.176,0.003
19/03/2023,09:05:15,0.175,0.0,0.179,0.003
19/03/2023,09:06:14,0.172,0.0,0.182,0.003
19/03/2023,09:07:15,0.175,0.0,0.185,0.003
19/03/2023,09:08:14,0.181,0.0,0.188,0.003
19/03/2023,09:09:14,0.185,0.0,0.191,0.003
19/03/2023,09:10:14,0.181,0.0,0.194,0.003
19/03/2023,09:11:14,0.177,0.0,0.197,0.003
19/03/2023,09:12:14,0.178,0.0,0.2,0.003
19/03/2023,09:13:14,0.185,0.0,0.203,0.003
19/03/2023,09:14:14,0.192,0.0,0.206,0.003
19/03/2023,09:15:14,0.195,0.0,0.209,0.003
19/03/2023,09:16:14,0.192,0.0,0.212,0.003
19/03/2023,09:17:14,0.188,0.0,0.215,0.003
19/03/2023,09:18:15,0.179,0.0,0.218,0.003
19/03/2023,09:19:15,0.179,0.0,0.221,0.003
19/03/2023,09:20:14,0.176,0.0,0.224,0.003
19/03/2023,09:21:15,0.176,0.0,0.227,0.003
19/03/2023,09:22:14,0.189,0.0,0.23,0.003
19/03/2023,09:23:15,0.201,0.0,0.234,0.004
19/03/2023,09:24:14,0.202,0.0,0.237,0.003
19/03/2023,09:25:14,0.199,0.0,0.24,0.003
19/03/2023,09:26:14,0.193,0.0,0.244,0.004
19/03/2023,09:27:14,0.194,0.0,0.247,0.003
19/03/2023,09:28:14,0.193,0.0,0.25,0.003
19/03/2023,09:29:14,0.194,0.0,0.253,0.003
19/03/2023,09:30:14,0.196,0.0,0.256,0.003
19/03/2023,09:31:14,0.199,0.0,0.26,0.004
19/03/2023,09:32:14,0.206,0.0,0.263,0.003
19/03/2023,09:33:14,0.213,0.0,0.267,0.004
19/03/2023,09:34:14,0.222,1.0,0.27,0.003
19/03/2023,09:35:14,0.228,1.0,0.274,0.004
19/03/2023,09:36:14,0.232,1.0,0.278,0.004
19/03/2023,09:37:15,0.234,1.0,0.282,0.004
19/03/2023,09:38:15,0.237,1.0,0.286,0.004
19/03/2023,09:39:15,0.243,1.0,0.29,0.004
19/03/2023,09:40:15,0.253,1.0,0.294,0.004
19/03/2023,09:41:14,0.260,1.0,0.298,0.004
19/03/2023,09:42:15,0.267,1.0,0.302,0.004
19/03/2023,09:43:14,0.262,1.0,0.307,0.005
19/03/2023,09:44:14,0.253,1.0,0.311,0.004
19/03/2023,09:45:14,0.246,1.0,0.315,0.004
19/03/2023,09:46:15,0.246,1.0,0.319,0.004
19/03/2023,09:47:14,0.250,1.0,0.324,0.005
19/03/2023,09:48:15,0.257,1.0,0.328,0.004
19/03/2023,09:49:14,0.263,1.0,0.332,0.004
19/03/2023,09:50:15,0.262,1.0,0.336,0.004
19/03/2023,09:51:14,0.259,1.0,0.341,0.005
19/03/2023,09:52:15,0.263,1.0,0.345,0.004
19/03/2023,09:53:14,0.272,1.0,0.35,0.005
19/03/2023,09:54:14,0.280,1.0,0.354,0.004
19/03/2023,09:55:14,0.285,1.0,0.359,0.005
19/03/2023,09:56:14,0.286,1.0,0.364,0.005
19/03/2023,09:57:14,0.290,1.0,0.369,0.005
19/03/2023,09:58:14,0.301,1.0,0.373,0.004
19/03/2023,09:59:14,0.314,1.0,0.379,0.006
19/03/2023,10:00:14,0.328,1.0,0.384,0.005
19/03/2023,10:01:14,0.339,1.0,0.389,0.005
19/03/2023,10:02:15,0.353,1.0,0.395,0.006
19/03/2023,10:03:14,0.368,1.0,0.401,0.006
19/03/2023,10:04:14,0.383,1.0,0.408,0.007
19/03/2023,10:05:15,0.402,1.0,0.414,0.006
19/03/2023,10:06:15,0.415,1.0,0.421,0.007
19/03/2023,10:07:15,0.424,1.0,0.428,0.007
19/03/2023,10:08:15,0.433,1.0,0.435,0.007
19/03/2023,10:09:14,0.442,1.0,0.442,0.007
19/03/2023,10:10:15,0.458,1.0,0.45,0.008
19/03/2023,10:11:15,0.480,1.0,0.458,0.008